Location: El Bakhil
(32.7726°N, 5.5387°W)
Time: 01:10:45
(UTC+00:00)

EO-88 - Pass Details

Date: 31 July 2021
Orbit: 474 x 484 km, 97.3° (Epoch: 24 September)

Event Time Altitude Azimuth Distance (km) Brightness Sun altitude
Exits shadow 21:24:30 17° 36° (NE) 1,288 ? -22.8°
Drops below altitude 10° 21:25:46 10° 20° (NNE) 1,664 ? -23.0°
Sets 21:28:08 0° 5° (N) 2,550 ? -23.4°
